Location: *
(46.4000°N, 12.6667°E)
Time: 17:24:38
(UTC+00:00)

Cosmos 1908 - Pass Details

Date: 09 April 2020
Orbit: 511 x 531 km, 82.5° (Epoch: 28 May)

Event Time Altitude Azimuth Distance (km) Brightness Sun altitude
Rises 19:03:51 0° 199° (SSW) 2,637 6.7 -12.9°
Reaches altitude 10° 19:06:00 10° 204° (SSW) 1,758 5.9 -13.2°
Maximum altitude 19:09:47 54° 282° (WNW) 648 4.0 -13.8°
Drops below altitude 10° 19:13:38 10° 0° (N) 1,784 6.3 -14.4°
Sets 19:15:50 0° 5° (N) 2,682 7.2 -14.7°
